Rolla, ND

9:11 PM CDT on March 22, 2017 (GMT -0500)
Rolla

Weather History for K06D - October, 2013

Change the Weather History Date:

Thursday, October 3, 2013

  Actual Average (KRUG) Record (KRUG)
Temperature  
Mean Temperature 46 °F -  
Max Temperature 53 °F 63 °F 83 °F (1963)
Min Temperature 39 °F 37 °F 10 °F (1989)
Degree Days  
Heating Degree Days 19    
Moisture  
Dew Point 37 °F    
Average Humidity 76    
Maximum Humidity 100    
Minimum Humidity 44    
Precipitation  
Precipitation 0.00 in - - ()
Sea Level Pressure  
Sea Level Pressure 30.10 in    
Wind  
Wind Speed 11 mph (North)    
Max Wind Speed 21 mph    
Max Gust Speed 25 mph    
Visibility 10 miles    
Events      
Averages and records for this station are not official NWS values.
T = Trace of Precipitation, MM = Missing Value Source: NWS Daily Summary

Daily Weather History Graph

Daily Weather History Graph

Search for Another Location

Airport or City:

Trip Planner

Search our weather history database for the weather conditions in past years. The results will help you decide how hot, cold, wet, or windy it might be!

Date:

Astronomy

Oct. 03, 2013 Rise Set
Actual Time 7:41 AM CDT 7:12 PM CDT
Civil Twilight 7:09 AM CDT 7:43 PM CDT
Nautical Twilight 6:33 AM CDT 8:20 PM CDT
Astronomical Twilight 5:55 AM CDT 8:57 PM CDT
Moon 6:12 AM CDT (10/3) 6:23 PM CDT (10/3)
Length of Visible Light 12h 34m
Length of Day
11h 31m
Waning Crescent, 2% of the Moon is Illuminated
Oct 3
Waning Crescent
Oct 4
New
Oct 11
First Quarter
Oct 18
Full
Oct 26
Last Quarter

Hourly Weather History & Observations

Time (CDT) Temp. Windchill Dew Point Humidity Pressure Visibility Wind Dir Wind Speed Gust Speed Precip Events Conditions
12:15 AM 44.6 °F 39.2 °F 35.6 °F 71% 30.01 in 10.0 mi NNW 10.4 mph - N/A   Partly Cloudy
12:35 AM 41.0 °F 35.2 °F 35.6 °F 81% 30.01 in 10.0 mi NNW 9.2 mph - N/A   Partly Cloudy
12:55 AM 41.0 °F 35.2 °F 35.6 °F 81% 30.00 in 10.0 mi NNW 9.2 mph - N/A   Clear
1:15 AM 41.0 °F 36.4 °F 35.6 °F 81% 30.01 in 10.0 mi NNW 6.9 mph - N/A   Partly Cloudy
1:35 AM 41.0 °F 35.8 °F 35.6 °F 81% 30.01 in 10.0 mi NNW 8.1 mph - N/A   Clear
1:55 AM 41.0 °F 34.7 °F 35.6 °F 81% 30.02 in 10.0 mi NNW 10.4 mph - N/A   Clear
2:15 AM 41.0 °F 35.2 °F 35.6 °F 81% 30.02 in 10.0 mi NNW 9.2 mph - N/A   Clear
2:35 AM 41.0 °F 34.7 °F 35.6 °F 81% 30.02 in 10.0 mi NNW 10.4 mph - N/A   Clear
2:55 AM 41.0 °F 34.7 °F 37.4 °F 87% 30.02 in 10.0 mi NNW 10.4 mph - N/A   Clear
3:15 AM 41.0 °F 35.2 °F 37.4 °F 87% 30.01 in 10.0 mi North 9.2 mph - N/A   Clear
3:35 AM 41.0 °F 35.8 °F 37.4 °F 87% 30.02 in 10.0 mi NNW 8.1 mph - N/A   Clear
3:55 AM 41.0 °F 36.4 °F 37.4 °F 87% 30.02 in 10.0 mi NNW 6.9 mph - N/A   Clear
4:15 AM 41.0 °F 35.8 °F 37.4 °F 87% 30.01 in 10.0 mi NNW 8.1 mph - N/A   Clear
4:35 AM 41.0 °F 36.4 °F 37.4 °F 87% 30.03 in 10.0 mi NNW 6.9 mph - N/A   Clear
4:55 AM 41.0 °F 36.4 °F 37.4 °F 87% 30.04 in 10.0 mi NNW 6.9 mph - N/A   Clear
5:15 AM 39.2 °F 35.0 °F 37.4 °F 93% 30.04 in 10.0 mi North 5.8 mph - N/A   Clear
5:35 AM 41.0 °F 39.0 °F 37.4 °F 87% 30.05 in 10.0 mi North 3.5 mph - N/A   Clear
5:55 AM 39.2 °F 35.9 °F 39.2 °F 100% 30.05 in 10.0 mi North 4.6 mph - N/A   Clear
6:15 AM 39.2 °F 34.2 °F 37.4 °F 93% 30.04 in 10.0 mi NNW 6.9 mph - N/A   Clear
6:35 AM 39.2 °F 33.0 °F 37.4 °F 93% 30.05 in 10.0 mi NNW 9.2 mph - N/A   Clear
6:55 AM 39.2 °F 33.0 °F 37.4 °F 93% 30.05 in 10.0 mi NNW 9.2 mph - N/A   Clear
7:15 AM 39.2 °F 33.6 °F 37.4 °F 93% 30.06 in 10.0 mi NNW 8.1 mph - N/A   Clear
7:35 AM 39.2 °F 34.2 °F 37.4 °F 93% 30.07 in 10.0 mi NNW 6.9 mph - N/A   Clear
7:55 AM 39.2 °F 34.2 °F 37.4 °F 93% 30.07 in 10.0 mi North 6.9 mph - N/A   Clear
8:15 AM 39.2 °F 33.0 °F 37.4 °F 93% 30.08 in 10.0 mi NNW 9.2 mph - N/A   Clear
8:35 AM 41.0 °F 35.8 °F 39.2 °F 93% 30.08 in 10.0 mi NNW 8.1 mph - N/A   Clear
8:55 AM 41.0 °F 36.4 °F 39.2 °F 93% 30.09 in 10.0 mi NNW 6.9 mph - N/A   Clear
9:15 AM 41.0 °F 35.8 °F 39.2 °F 93% 30.09 in 10.0 mi NNW 8.1 mph - N/A   Clear
9:35 AM 41.0 °F 34.7 °F 39.2 °F 93% 30.09 in 10.0 mi North 10.4 mph - N/A   Clear
9:55 AM 44.6 °F 39.2 °F 39.2 °F 81% 30.09 in 10.0 mi North 10.4 mph - N/A   Clear
10:15 AM 46.4 °F 40.4 °F 37.4 °F 71% 30.09 in 10.0 mi North 13.8 mph - N/A   Clear
10:35 AM 48.2 °F - 35.6 °F 62% 30.09 in 10.0 mi North 13.8 mph 18.4 mph N/A   Partly Cloudy
10:55 AM 48.2 °F - 35.6 °F 62% 30.10 in 10.0 mi NNE 13.8 mph - N/A   Mostly Cloudy
11:15 AM 48.2 °F - 35.6 °F 62% 30.10 in 10.0 mi North 15.0 mph - N/A   Mostly Cloudy
11:35 AM 48.2 °F - 35.6 °F 62% 30.10 in 10.0 mi North 13.8 mph - N/A   Scattered Clouds
11:55 AM 48.2 °F - 33.8 °F 58% 30.10 in 10.0 mi North 17.3 mph - N/A   Mostly Cloudy
12:15 PM 50.0 °F - 32.0 °F 50% 30.09 in 10.0 mi North 16.1 mph 20.7 mph N/A   Mostly Cloudy
12:35 PM 50.0 °F - 32.0 °F 50% 30.10 in 10.0 mi North 17.3 mph - N/A   Overcast
12:55 PM 50.0 °F - 32.0 °F 50% 30.11 in 10.0 mi North 12.7 mph - N/A   Mostly Cloudy
1:15 PM 50.0 °F - 33.8 °F 54% 30.12 in 10.0 mi North 11.5 mph 20.7 mph N/A   Clear
1:35 PM 51.8 °F - 33.8 °F 50% 30.11 in 10.0 mi North 11.5 mph 19.6 mph N/A   Clear
1:55 PM 51.8 °F - 33.8 °F 50% 30.11 in 10.0 mi North 13.8 mph 17.3 mph N/A   Clear
2:15 PM 53.6 °F - 35.6 °F 51% 30.11 in 10.0 mi North 16.1 mph 20.7 mph N/A   Partly Cloudy
2:35 PM 51.8 °F - 33.8 °F 50% 30.10 in 10.0 mi NNE 12.7 mph 19.6 mph N/A   Clear
2:55 PM 51.8 °F - 33.8 °F 50% 30.10 in 10.0 mi North 11.5 mph 25.3 mph N/A   Scattered Clouds
3:15 PM 51.8 °F - 33.8 °F 50% 30.10 in 10.0 mi North 15.0 mph 23.0 mph N/A   Scattered Clouds
3:35 PM 51.8 °F - 33.8 °F 50% 30.11 in 10.0 mi North 13.8 mph 24.2 mph N/A   Scattered Clouds
3:55 PM 53.6 °F - 32.0 °F 44% 30.11 in 10.0 mi North 17.3 mph 21.9 mph N/A   Partly Cloudy
4:15 PM 51.8 °F - 33.8 °F 50% 30.11 in 10.0 mi North 15.0 mph 21.9 mph N/A   Mostly Cloudy
4:35 PM 50.0 °F - 33.8 °F 54% 30.11 in 10.0 mi North 16.1 mph 24.2 mph N/A   Mostly Cloudy
4:55 PM 50.0 °F - 33.8 °F 54% 30.11 in 10.0 mi North 15.0 mph - N/A   Scattered Clouds
5:15 PM 50.0 °F - 37.4 °F 62% 30.12 in 10.0 mi NNE 17.3 mph - N/A   Scattered Clouds
5:35 PM 50.0 °F - 37.4 °F 62% 30.13 in 10.0 mi NE 16.1 mph 20.7 mph N/A   Scattered Clouds
5:55 PM 48.2 °F - 35.6 °F 62% 30.14 in 10.0 mi NNE 13.8 mph - N/A   Scattered Clouds
6:15 PM 48.2 °F - 35.6 °F 62% 30.15 in 10.0 mi NE 11.5 mph 18.4 mph N/A   Scattered Clouds
6:35 PM 48.2 °F - 35.6 °F 62% 30.15 in 10.0 mi NE 12.7 mph - N/A   Partly Cloudy
6:55 PM 46.4 °F 39.2 °F 37.4 °F 71% 30.16 in 10.0 mi NNE 18.4 mph 23.0 mph N/A   Partly Cloudy
7:15 PM 46.4 °F 39.0 °F 39.2 °F 76% 30.17 in 10.0 mi NNE 19.6 mph 23.0 mph N/A   Mostly Cloudy
7:35 PM 44.6 °F 37.4 °F 39.2 °F 81% 30.19 in 10.0 mi NNE 16.1 mph - N/A   Overcast
7:55 PM 44.6 °F 37.8 °F 39.2 °F 81% 30.20 in 10.0 mi NNE 15.0 mph - N/A   Overcast
8:15 PM 42.8 °F 35.4 °F 39.2 °F 87% 30.20 in 10.0 mi NNE 15.0 mph - N/A   Mostly Cloudy
8:35 PM 42.8 °F 35.8 °F 41.0 °F 93% 30.21 in 10.0 mi NNE 13.8 mph - N/A   Mostly Cloudy
8:55 PM 42.8 °F 34.5 °F 41.0 °F 93% 30.21 in 10.0 mi NNE 18.4 mph 23.0 mph N/A   Overcast
9:15 PM 41.0 °F 33.1 °F 39.2 °F 93% 30.22 in 10.0 mi NE 15.0 mph - N/A   Overcast
9:35 PM 41.0 °F 32.2 °F 39.2 °F 93% 30.22 in 10.0 mi NNE 18.4 mph - N/A   Overcast
9:55 PM 41.0 °F 32.5 °F 39.2 °F 93% 30.22 in 10.0 mi NE 17.3 mph 23.0 mph N/A   Overcast
10:15 PM 41.0 °F 32.2 °F 39.2 °F 93% 30.23 in 10.0 mi NNE 18.4 mph 24.2 mph N/A   Overcast
10:35 PM 41.0 °F 31.6 °F 39.2 °F 93% 30.23 in 10.0 mi NNE 20.7 mph - N/A   Overcast
11:35 PM 39.2 °F 29.6 °F 37.4 °F 93% 30.26 in 10.0 mi North 19.6 mph - N/A   Overcast
11:55 PM 39.2 °F 30.2 °F 37.4 °F 93% 30.26 in 10.0 mi North 17.3 mph - N/A   Overcast